Location: Trout Lake
(45.9980°N, 121.5270°W)
Time: 19:26:31
(UTC-08:00)

ADEOS - Pass Details

Date: 06 December 2023
Orbit: 790 x 794 km, 98.9° (Epoch: 22 February)

Event Time Altitude Azimuth Distance (km) Brightness Sun altitude
Rises 17:57:47 0° 147° (SSE) 3,278 6.6 -16.1°
Reaches altitude 10° 18:00:09 10° 142° (SE) 2,353 5.8 -16.5°
Maximum altitude 18:05:09 49° 69° (ENE) 1,016 3.7 -17.3°
Drops below altitude 10° 18:10:10 10° 355° (N) 2,371 5.9 -18.2°
Sets 18:12:33 0° 351° (N) 3,305 6.7 -18.6°
